Regional Weather Roundup
Issued by NWS

Home | Current Version | Previous Version | Graphics & Text | Print | Product List | Glossary On
Versions: 1 2 3 4 5 6 7 8 9 10 11 12 13 14 15 16 17 18 19 20 21 22 23 24 25 26 27 28 29 30 31 32 33 34 35 36 37 38 39 40 41 42 43 44 45 46 47 48 49 50
000
ASUS43 KDTX 220010
RWRMI
MICHIGAN HOURLY REGIONAL WEATHER ROUNDUP
NATIONAL WEATHER SERVICE DETROIT/PONTIAC MI
700 PM EST WED FEB 21 2018

NOTE: "FAIR" INDICATES FEW OR NO CLOUDS BELOW 12,000 FEET WITH NO
SIGNIFICANT WEATHER AND/OR OBSTRUCTION TO VISIBILITY.

MIZ047>049-052>055-059>063-066>070-074>076-081>083-220100-
SOUTHEAST LOWER MICHIGAN

CITY           SKY/WX    TMP DP  RH WIND       PRES   REMARKS
ADRIAN         FAIR      36  30  79 NE7       30.58R WCI  30
6HR MIN TEMP:  36; 6HR MAX TEMP:  39;

ALMA           FAIR      32  27  82 CALM      30.60R
6HR MIN TEMP:  32; 6HR MAX TEMP:  36;

ANN ARBOR      FAIR      36  29  75 N7        30.57R WCI  30
BAD AXE        FAIR      28  24  82 E5        30.61R WCI  23
6HR MIN TEMP:  28; 6HR MAX TEMP:  34;

CARO           FAIR      31  26  81 CALM      30.59R
DETROIT CITY   FAIR      32  26  78 E6        30.59R WCI  26
6HR MIN TEMP:  32; 6HR MAX TEMP:  41;

DETROIT        CLOUDY    36  30  79 E7        30.59R WCI  30
6HR MIN TEMP:  36; 6HR MAX TEMP:  43;

FLINT          FAIR      34  27  75 NE5       30.59R WCI  30
6HR MIN TEMP:  34; 6HR MAX TEMP:  37;

GROSSE ILE     MOCLDY    33  30  89 NE8       30.59R WCI  26
6HR MIN TEMP:  33; 6HR MAX TEMP:  40;

HILLSDALE      FAIR      34  30  86 NE6       30.55R WCI  29
HOWELL         FAIR      34  29  84 CALM      30.58R
6HR MIN TEMP:  34; 6HR MAX TEMP:  36;


CITY           SKY/WX    TMP DP  RH WIND       PRES   REMARKS
JACKSON        MOCLDY    35  29  78 N5        30.57R WCI  31
6HR MIN TEMP:  35; 6HR MAX TEMP:  38;

LAMBERTVILLE   CLOUDY    35  32  90 E5        30.59R WCI  31
6HR MIN TEMP:  35; 6HR MAX TEMP:  39;

LANSING        FAIR      34  28  79 NE3       30.59R
6HR MIN TEMP:  34; 6HR MAX TEMP:  37;

LAPEER         FAIR      33  27  77 N3        30.59R
6HR MIN TEMP:  33; 6HR MAX TEMP:  37;

MASON          FAIR      35  28  76 NE5       30.58R WCI  31
6HR MIN TEMP:  35; 6HR MAX TEMP:  37;

MONROE         CLOUDY    35  33  90 SE5       30.58R WCI  31
6HR MIN TEMP:  35; 6HR MAX TEMP:  40;

MT. CLEMENS    CLOUDY    31  31  99 E12       30.58R WCI  22
6HR MIN TEMP:  31; 6HR MAX TEMP:  38;

PONTIAC        CLOUDY    35  27  72 N3        30.56R
6HR MIN TEMP:  35; 6HR MAX TEMP:  38;

PORT HOPE        N/A     28  21  75 E8        30.60R WCI  20
6HR MIN TEMP:  28; 6HR MAX TEMP:  32;

PORT HURON     FAIR      28  23  80 NE8       30.60S WCI  20
TRI CITIES     FAIR      34  25  69 N5        30.60R WCI  30
6HR MIN TEMP:  34; 6HR MAX TEMP:  37;

MIDLAND        FAIR      32  23  68 CALM      30.60R
6HR MIN TEMP:  32; 6HR MAX TEMP:  37;

TROY           FAIR      34  30  84 E8        30.60R WCI  27
SAGINAW HB     FAIR      32  28  86 CALM      30.60R
$$
MIZ043>046-050>051-056>058-064>065-071>073-077>080-220100-
SOUTHWEST LOWER MICHIGAN

CITY           SKY/WX    TMP DP  RH WIND       PRES   REMARKS
BATTLE CREEK   FAIR      33  27  78 N5        30.58R WCI  29
6HR MIN TEMP:  33; 6HR MAX TEMP:  35;

BENTON HARBOR  FAIR      30  23  75 VRB6      30.61R WCI  24
6HR MIN TEMP:  30; 6HR MAX TEMP:  32;

BIG RAPIDS     FAIR      29  17  59 NW3       30.58R
6HR MIN TEMP:  29; 6HR MAX TEMP:  33;

COLDWATER      FAIR      34  31  89 N6        30.57R WCI  29
6HR MIN TEMP:  34; 6HR MAX TEMP:  36;

FREMONT        FAIR      28  18  66 NW6       30.61R WCI  22
6HR MIN TEMP:  28; 6HR MAX TEMP:  32;

HOLLAND        FAIR      30  22  72 NW7       30.61R WCI  23
6HR MIN TEMP:  30; 6HR MAX TEMP:  34;

GRAND RAPIDS   CLOUDY    33  25  72 NW7       30.59R WCI  27
6HR MIN TEMP:  33; 6HR MAX TEMP:  36;

IONIA          FAIR      33  28  81 CALM      30.58R
6HR MIN TEMP:  33; 6HR MAX TEMP:  36;

KALAMAZOO      FAIR      34  28  79 N3        30.59R
6HR MIN TEMP:  34; 6HR MAX TEMP:  35;

LUDINGTON      FAIR      23  17  78 CALM      30.63R
6HR MIN TEMP:  23; 6HR MAX TEMP:  28;

MARSHALL       FAIR      33  28  83 CALM      30.57R
6HR MIN TEMP:  33; 6HR MAX TEMP:  34;

MOUNT PLEASANT FAIR      32  24  71 CALM      30.59R
6HR MIN TEMP:  32; 6HR MAX TEMP:  37;

MUSKEGON       MOCLDY    28  19  69 NW7       30.63R WCI  21
6HR MIN TEMP:  28; 6HR MAX TEMP:  34;

SOUTH HAVEN    FAIR      30  25  80 N5        30.60S WCI  25
$$
MIZ016>042-220100-
NORTHERN LOWER MICHIGAN

CITY           SKY/WX    TMP DP  RH WIND       PRES   REMARKS
ALPENA         FAIR      23  18  81 N6        30.61R WCI  16
6HR MIN TEMP:  23; 6HR MAX TEMP:  30;

BEAVER ISLAND  FAIR      22  15  75 SW3       30.64R
6HR MIN TEMP:  22; 6HR MAX TEMP:  25;

BELLAIRE       FAIR      24  19  81 CALM      30.64R
6HR MIN TEMP:  24; 6HR MAX TEMP:  27;

CADILLAC       FAIR      24  16  71 CALM      30.56R
CHARLEVOIX     CLOUDY    24  18  77 W6        30.66R WCI  17
6HR MIN TEMP:  24; 6HR MAX TEMP:  25;

FRANKFORT      FAIR      24  16  72 CALM      30.64R
GAYLORD        FAIR      22  16  78 NW3       30.57R
6HR MIN TEMP:  22; 6HR MAX TEMP:  25;

GRAYLING       FAIR      24  16  71 CALM      30.57R
6HR MIN TEMP:  23; 6HR MAX TEMP:  28;

HARBOR SPRINGS FAIR      21  15  78 CALM      30.63R
HOUGHTON LAKE  FAIR      27  19  72 CALM      30.58R
6HR MIN TEMP:  27; 6HR MAX TEMP:  29;

MANISTEE       FAIR      22  16  78 CALM      30.64R
OSCODA         FAIR      28  19  70 SE5       30.61R WCI  22
6HR MIN TEMP:  28; 6HR MAX TEMP:  35;

PELLSTON       FAIR      21  14  74 SW3       30.63R
6HR MIN TEMP:  21; 6HR MAX TEMP:  26;

ROGERS CITY    FAIR      24  17  75 NW3       30.63R
TRAVERSE CITY  MOCLDY    26  17  68 N6        30.63R WCI  19
6HR MIN TEMP:  26; 6HR MAX TEMP:  30;

$$
MIZ007>008-015-220100-
EASTERN UPPER MICHIGAN

CITY           SKY/WX    TMP DP  RH WIND       PRES   REMARKS
KINROSS        FLURRIES  19  14  81 N5        30.61R WCI  12
6HR MIN TEMP:  19; 6HR MAX TEMP:  25; 6HR PCP: TRACE;

MACKINAC ISLAN FAIR      21  16  80 SW8       30.62R WCI  12
6HR MIN TEMP:  21; 6HR MAX TEMP:  24;

NEWBERRY       FAIR      19  12  76 CALM      30.59R
6HR MIN TEMP:  19; 6HR MAX TEMP:  25;

S. S. MARIE    FAIR      22  13  68 NW6       30.60R WCI  14
6HR MIN TEMP:  22; 6HR MAX TEMP:  25; 6HR PCP: TRACE;

MUNISING         N/A     17  13  84 CALM      30.60R
6HR MIN TEMP:  16; 6HR MAX TEMP:  25;

$$
MIZ004>006-011>014-085-220100-
CENTRAL UPPER MICHIGAN

CITY           SKY/WX    TMP DP  RH WIND       PRES   REMARKS
MANISTIQUE     FAIR      22  14  71 CALM      30.61R
6HR MIN TEMP:  22; 6HR MAX TEMP:  26;

ESCANABA       FAIR      19   9  65 CALM      30.62R
6HR MIN TEMP:  19; 6HR MAX TEMP:  29;

MENOMINEE      FAIR      21   9  59 SW3       30.64R
6HR MIN TEMP:  21; 6HR MAX TEMP:  31;

SAWYER-GWINN   CLEAR     18  12  79 NE5       30.56R WCI  11
$$
MIZ001>003-009>011-084-220100-
WESTERN UPPER MICHIGAN

CITY           SKY/WX    TMP DP  RH WIND       PRES   REMARKS
IRON MOUNTAIN  FAIR      23   5  46 CALM      30.55R
6HR MIN TEMP:  19; 6HR MAX TEMP:  26;

HOUGHTON       FAIR       8   1  73 W6        30.54R WCI  -2
6HR MIN TEMP:   6; 6HR MAX TEMP:  18;

COPPER HARBOR    N/A     12   7  80 CALM      30.57R
6HR MIN TEMP:  12; 6HR MAX TEMP:  21;

IRONWOOD       FAIR      17   7  64 SW7       30.56R WCI   8
6HR MIN TEMP:  17; 6HR MAX TEMP:  22;

$$

ABBREVIATIONS USED IN REMARKS
   TC - TEMPERATURE IN CELSIUS
  WCI - WIND CHILL INDEX
   HX - HEAT INDEX
  VSB - VISIBILITY




USA.gov is the U.S. government's official web portal to all federal, state and local government web resources and services.